Rotterdam, Netherlands

2:03 AM CET on February 28, 2017 (GMT +0100)
Rotterdam

Weather History for EHRD - April, 2014

Change the Weather History Date:

Monday, April 28, 2014

  Actual Average Record
Temperature  
Mean Temperature 55 °F -  
Max Temperature 64 °F 62 °F 77 °F (2007)
Min Temperature 46 °F 46 °F 29 °F (2013)
Degree Days  
Heating Degree Days 10    
Growing Degree Days 5 (Base 50)    
Moisture  
Dew Point 49 °F    
Average Humidity 80    
Maximum Humidity 100    
Minimum Humidity 45    
Precipitation  
Precipitation 0.00 in - - ()
Sea Level Pressure  
Sea Level Pressure 29.84 in    
Wind  
Wind Speed 5 mph ()    
Max Wind Speed 11 mph    
Max Gust Speed -    
Visibility 6.0 miles    
Events Fog    
Averages and records for this station are not official NWS values.
T = Trace of Precipitation, MM = Missing Value Source: Averaged Metar Reports

Daily Weather History Graph

Daily Weather History Graph

Search for Another Location

Airport or City:

Trip Planner

Search our weather history database for the weather conditions in past years. The results will help you decide how hot, cold, wet, or windy it might be!

Date:

Astronomy

Apr. 28, 2014 Rise Set
Actual Time 6:18 AM CEST 9:01 PM CEST
Civil Twilight 5:40 AM CEST 9:39 PM CEST
Nautical Twilight 4:51 AM CEST 10:29 PM CEST
Astronomical Twilight 3:52 AM CEST 11:29 PM CEST
Moon 5:56 AM CEST 8:17 PM CEST
Length of Visible Light 15h 59m
Length of Day
14h 42m
Waning Crescent, 1% of the Moon is Illuminated
Apr 28
Waning Crescent
Apr 29
New
May 7
First Quarter
May 14
Full
May 21
Last Quarter

Hourly Weather History & Observations

Time (CEST) Temp. Windchill Dew Point Humidity Pressure Visibility Wind Dir Wind Speed Gust Speed Precip Events Conditions
12:00 AM 50 °F - 49 °F 94% 29.79 in 6 mi ENE 6.7 mph - -  
12:25 AM 50.0 °F - 50.0 °F 100% 29.77 in 6.2 mi East 5.8 mph - N/A   Unknown
12:55 AM 50.0 °F - 50.0 °F 100% 29.77 in 5.6 mi East 5.8 mph - N/A   Unknown
1:00 AM 51 °F - 49 °F 90% 29.80 in 5 mi ENE 4.5 mph - -   Mist
1:25 AM 48.2 °F - 48.2 °F 100% 29.77 in 3.7 mi ENE 4.6 mph - N/A   Unknown
1:55 AM 50.0 °F - 50.0 °F 100% 29.80 in 3.7 mi East 5.8 mph - N/A   Unknown
2:00 AM 50 °F - 49 °F 95% 29.80 in 4 mi East 6.7 mph - -   Mist
2:25 AM 50.0 °F - 50.0 °F 100% 29.77 in 3.1 mi ESE 3.5 mph - N/A   Mist
2:55 AM 50.0 °F - 48.2 °F 94% 29.77 in - ESE 3.5 mph - N/A   Mist
3:00 AM 48 °F - 47 °F 95% 29.80 in 2 mi ENE 4.5 mph - -   Mist
3:25 AM 48.2 °F - 46.4 °F 93% 29.77 in - ENE 3.5 mph - N/A   Mist
3:55 AM 48.2 °F - 48.2 °F 100% 29.77 in - East 3.5 mph - N/A   Mist
4:00 AM 49 °F - 48 °F 95% 29.80 in 2 mi East 2.2 mph - -   Mist
4:25 AM 48.2 °F - 46.4 °F 93% 29.77 in 1.4 mi Variable 2.3 mph - N/A   Mist
4:55 AM 46.4 °F 44.3 °F 46.4 °F 100% 29.80 in 1.2 mi ENE 4.6 mph - N/A   Mist
5:00 AM 47 °F - 46 °F 97% 29.81 in 1 mi East 2.2 mph - - Fog Fog
5:25 AM 46.4 °F - 46.4 °F 100% 29.80 in 1.0 mi Variable 2.3 mph - N/A   Mist
5:55 AM 46.4 °F - 46.4 °F 100% 29.80 in 1.3 mi Variable 2.3 mph - N/A   Mist
6:00 AM 47 °F - 47 °F 98% 29.81 in 1 mi NE 2.2 mph - - Fog Fog
6:25 AM 46.4 °F 44.3 °F 46.4 °F 100% 29.80 in 0.8 mi NE 4.6 mph - N/A   Mist
6:55 AM 48.2 °F - 48.2 °F 100% 29.80 in 0.9 mi ENE 4.6 mph - N/A   Mist
7:00 AM 48 °F - 47 °F 97% 29.82 in 1 mi ENE 4.5 mph - -   Mist
7:25 AM 48.2 °F - 48.2 °F 100% 29.80 in 1.4 mi ENE 5.8 mph - N/A   Mist
7:55 AM 50.0 °F - 50.0 °F 100% 29.83 in 1.7 mi East 4.6 mph - N/A   Mist
8:00 AM 51 °F - 51 °F 99% 29.83 in 2 mi East 4.5 mph - -   Mist
8:25 AM 51.8 °F - 51.8 °F 100% 29.83 in - East 5.8 mph - N/A   Mist
8:55 AM 55.4 °F - 51.8 °F 88% 29.83 in 3.7 mi ESE 3.5 mph - N/A   Unknown
9:00 AM 55 °F - 51 °F 80% 29.84 in 4 mi East 2.2 mph - -   Mist
9:25 AM 57.2 °F - 51.8 °F 82% 29.83 in 5.6 mi Variable 2.3 mph - N/A   Unknown
9:55 AM 57.2 °F - 51.8 °F 82% 29.83 in 6.2 mi ENE 3.5 mph - N/A   Unknown
10:00 AM 58 °F - 52 °F 73% 29.85 in 8 mi NE 4.5 mph - -   Partly Cloudy
10:25 AM 59.0 °F - 50.0 °F 72% 29.83 in 6.2 mi NE 4.6 mph - N/A   Unknown
10:55 AM 60.8 °F - 48.2 °F 63% 29.83 in 6.2 mi ENE 3.5 mph - N/A   Unknown
11:00 AM 60 °F - 49 °F 56% 29.85 in 11 mi NE 4.5 mph - -   Scattered Clouds
11:25 AM 60.8 °F - 50.0 °F 68% 29.83 in 6.2 mi NE 5.8 mph - N/A   Unknown
11:55 AM 62.6 °F - 51.8 °F 68% 29.83 in 6.2 mi NE 5.8 mph - N/A   Unknown
12:00 PM 62 °F - 52 °F 61% 29.86 in 7 mi ENE 6.7 mph - -   Overcast
12:25 PM 62.6 °F - 51.8 °F 68% 29.83 in 6.2 mi ESE 8.1 mph - N/A   Scattered Clouds
12:55 PM 64.4 °F - 50.0 °F 59% 29.86 in 6.2 mi East 9.2 mph - N/A   Partly Cloudy
1:00 PM 65 °F - 51 °F 52% 29.86 in 9 mi ENE 8.9 mph - -   Scattered Clouds
1:25 PM 64.4 °F - 50.0 °F 59% 29.83 in 6.2 mi ENE 8.1 mph - N/A   Scattered Clouds
1:55 PM 62.6 °F - 50.0 °F 63% 29.86 in 6.2 mi NE 10.4 mph - N/A   Scattered Clouds
2:00 PM 64 °F - 48 °F 45% 29.86 in 10 mi NE 11.2 mph - -   Partly Cloudy
2:25 PM 64.4 °F - 50.0 °F 59% 29.86 in 6.2 mi ENE 10.4 mph - N/A   Partly Cloudy
2:55 PM 64.4 °F - 48.2 °F 56% 29.86 in 6.2 mi ENE 9.2 mph - N/A   Unknown
3:00 PM 63 °F - 47 °F 46% 29.87 in 12 mi NE 11.2 mph - -   Mostly Cloudy
3:25 PM 64.4 °F - 51.8 °F 64% 29.86 in 6.2 mi ENE 10.4 mph - N/A   Unknown
3:55 PM 64.4 °F - 51.8 °F 64% 29.86 in 6.2 mi NE 10.4 mph - N/A   Unknown
4:00 PM 64 °F - 52 °F 56% 29.87 in 8 mi ENE 11.2 mph - -   Overcast
4:25 PM 62.6 °F - 51.8 °F 68% 29.86 in 6.2 mi ENE 10.4 mph - N/A   Unknown
4:55 PM 62.6 °F - 50.0 °F 63% 29.86 in 6.2 mi ENE 8.1 mph - N/A   Unknown
5:00 PM 63 °F - 50 °F 53% 29.87 in 12 mi ENE 8.9 mph - -   Overcast
5:25 PM 62.6 °F - 50.0 °F 63% 29.86 in 6.2 mi NE 6.9 mph - N/A   Unknown
5:55 PM 62.6 °F - 51.8 °F 68% 29.86 in 6.2 mi ENE 6.9 mph - N/A   Mostly Cloudy
6:00 PM 62 °F - 51 °F 57% 29.88 in 14 mi ENE 8.9 mph - -   Overcast
6:25 PM 60.8 °F - 50.0 °F 68% 29.86 in 6.2 mi NE 10.4 mph - N/A   Unknown
6:55 PM 60.8 °F - 50.0 °F 68% 29.86 in 6.2 mi NE 9.2 mph - N/A   Unknown
7:00 PM 61 °F - 51 °F 60% 29.88 in 14 mi NE 8.9 mph - -   Overcast
7:25 PM 60.8 °F - 50.0 °F 68% 29.86 in 6.2 mi NE 8.1 mph - N/A   Unknown
7:55 PM 59.0 °F - 50.0 °F 72% 29.86 in 6.2 mi NE 8.1 mph - N/A   Unknown
8:00 PM 59 °F - 50 °F 63% 29.89 in 16 mi NE 8.9 mph - -   Partly Cloudy
8:25 PM 57.2 °F - 50.0 °F 77% 29.89 in 6.2 mi NE 6.9 mph - N/A   Unknown
8:55 PM 55.4 °F - 48.2 °F 77% 29.89 in 6.2 mi NE 4.6 mph - N/A   Unknown
9:00 PM 54 °F - 48 °F 75% 29.90 in 16 mi NE 4.5 mph - -   Mostly Cloudy
9:25 PM 51.8 °F - 48.2 °F 88% 29.89 in 6.2 mi ENE 4.6 mph - N/A   Unknown
9:55 PM 53.6 °F - 48.2 °F 82% 29.89 in 6.2 mi East 2.3 mph - N/A   Unknown
10:00 PM 54 °F - 49 °F 78% 29.91 in 15 mi ENE 2.2 mph - -   Overcast
10:25 PM 51.8 °F - 48.2 °F 88% 29.89 in 6.2 mi ENE 2.3 mph - N/A   Unknown
10:55 PM 51.8 °F - 50.0 °F 94% 29.89 in 6.2 mi NE 2.3 mph - N/A   Unknown
11:00 PM 51 °F - 49 °F 91% 29.92 in 9 mi NNE 2.2 mph - -  
11:25 PM 51.8 °F - 50.0 °F 94% 29.92 in 6.2 mi North 2.3 mph - N/A   Unknown
11:55 PM 51.8 °F - 50.0 °F 94% 29.92 in 6.2 mi NNW 3.5 mph - N/A   Unknown